Location: Newark
(35.2672°N, 80.7344°W)
Time: 18:02:55
(UTC+00:00)

Tiros 1 - Pass Details

Date: 20 January 2020
Orbit: 631 x 664 km, 48.4° (Epoch: 23 February)

Event Time Altitude Azimuth Distance (km) Brightness Sun altitude
Rises 18:40:46 0° 218° (SW) 2,923 11.5 32.4°
Reaches altitude 10° 18:43:07 10° 213° (SSW) 2,022 11.1 32.2°
Maximum altitude 18:47:38 51° 138° (SE) 807 8.4 31.9°
Drops below altitude 10° 18:52:13 10° 62° (ENE) 2,053 9.4 31.6°
Sets 18:54:37 0° 58° (ENE) 2,972 10.1 31.4°
